Hourly Data Report for July 12, 2021

CARIBOU POINT (AUT)
NOVA SCOTIA
Current Station Operator: ECCC - MSC

45°46'00.000" N
62°41'00.000" W
2.40 m
8200774
71415
WBK

Download Data

Hourly Data (July 2021)
Hourly Data Report for July 12, 2021
TIME
LST
Temp Definition
°C
Dew Point Definition
°C
Rel Hum Definition
%
Precip. Amount Definition
mm

Wind Dir Definition
10's deg

Wind Spd Definition
km/h
Visibility Definition
km
Stn Press Definition
kPa
Hmdx Definition


Wind Chill Definition


Weather Definition


00:00 18.0 16.1 89 0.0 22 10   101.63     LegendNANA
01:00 17.4 15.0 86 0.0 22 12   101.61     LegendNANA
02:00 16.8 14.4 86 0.0 22 11   101.62     LegendNANA
03:00 17.1 13.8 81 0.0 23 8   101.64     LegendNANA
04:00 17.7 12.7 72 0.0 27 16   101.68     LegendNANA
05:00 17.4 13.8 80 0.0 29 28   101.76     LegendNANA
06:00 17.0 14.6 86 0.0 29 24   101.87     LegendNANA
07:00 16.6 14.8 89 0.0 33 20   101.94     LegendNANA
08:00 17.0 15.0 88 0.0 32 17   102.01     LegendNANA
09:00 17.5 14.8 84 0.0 31 18   102.04     LegendNANA
10:00 17.9 15.1 84 0.0 30 16   102.09     LegendNANA
11:00 17.8 15.0 84 0.0 30 16   102.11     LegendNANA
12:00 18.8 14.9 78 0.0 29 21   102.16     LegendNANA
13:00 19.3 15.0 76 0.0 29 23   102.19     LegendNANA
14:00 19.5 16.0 80 0.0 29 25   102.23     LegendNANA
15:00 19.7 15.1 75 0.0 29 25   102.27     LegendNANA
16:00 19.9 15.7 77 0.0 29 24   102.31     LegendNANA
17:00 19.6 15.7 78 0.0 29 21   102.33     LegendNANA
18:00 19.1 15.5 79 0.0 29 15   102.39     LegendNANA
19:00 18.5 12.3 67 0.0 36 9   102.47     LegendNANA
20:00 17.5 12.1 71 0.0 2 11   102.47     LegendNANA
21:00 16.3 12.6 79 0.0 5 11   102.52     LegendNANA
22:00 15.1 12.0 82 0.0 17 4   102.56     LegendNANA
23:00 14.7 11.9 83 0.0 22 6   102.60     LegendNANA

Notes on Data Quality.

Legend

  • E = Estimated
  • M = Missing
  • NA = Not Available*
  • [empty] = Indicates an unobserved value
Date modified: